Theta_e
329 320 318 312 300 299 295 307 315 317 318 323 325 325 322 325 323 313 339 349 349 350 359 362 364 362 360 359 358 359 361 361 362 362 363 363 362 361 360 360 362 362 361 362 361 361 360 359 358
327 315 310 306 298 300 303 303 314 318 321 325 325 326 325 322 333 333 339 349 349 349 357 360 364 362 361 359 358 359 359 361 361 361 362 362 361 360 360 360 362 361 359 361 362 362 361 360 358
315 315 305 302 296 295 305 306 316 318 323 324 323 329 328 326 335 339 347 349 350 352 357 358 364 362 360 359 359 358 358 359 360 361 360 361 361 361 361 361 361 361 358 359 360 361 361 360 360
311 304 303 299 296 302 306 310 318 319 322 324 327 323 333 342 337 344 347 351 351 353 356 361 363 362 361 359 359 359 358 359 359 359 359 360 360 360 360 360 360 361 359 358 359 359 359 359 359
300 298 293 294 296 300 303 316 320 317 321 324 329 328 328 340 341 345 343 346 347 351 355 359 363 363 361 359 358 359 359 359 359 359 358 359 358 357 358 360 360 361 361 359 359 359 359 359 358
297 295 289 286 291 298 299 310 320 316 321 326 328 326 330 344 338 338 338 338 342 346 354 358 362 362 361 361 360 360 360 359 359 359 359 359 358 357 358 358 360 361 361 361 361 360 358 357 357
295 291 288 287 289 295 299 307 301 313 314 316 322 318 333 336 336 338 340 338 344 340 352 355 359 360 361 361 360 359 359 358 359 359 359 359 359 358 358 358 359 360 360 360 360 360 358 357 356
294 292 286 287 291 291 298 300 301 306 307 314 312 314 321 335 339 338 338 337 346 347 350 350 355 357 356 356 360 359 359 359 358 359 359 359 359 359 359 357 357 359 359 359 359 359 359 358 357
294 290 287 292 293 293 296 296 301 305 305 305 308 310 315 341 339 336 334 335 345 346 346 349 351 353 354 354 358 358 358 360 359 357 357 356 355 354 355 356 358 358 360 359 358 358 357 357 356
293 290 291 295 296 293 295 296 298 302 303 304 313 336 341 341 335 332 332 329 340 336 332 341 347 344 345 356 353 347 347 349 354 354 354 353 352 351 353 355 356 358 359 359 359 358 357 357 352
291 291 295 297 297 296 296 297 298 300 298 303 311 331 335 333 332 332 333 335 335 328 329 332 341 340 347 349 346 339 335 339 348 350 350 351 353 351 350 350 350 351 354 354 355 355 354 352 349
293 295 297 297 299 295 295 298 298 297 299 307 316 335 333 331 331 331 332 330 326 324 327 336 331 333 335 334 330 329 329 330 329 332 341 346 347 348 347 347 348 348 349 349 351 351 351 350 349
296 295 297 297 297 295 300 297 297 299 304 307 314 336 333 332 332 332 332 329 322 321 324 326 327 326 325 324 324 325 326 324 324 325 329 337 342 343 345 345 345 346 347 347 348 349 349 348 348
297 295 296 297 297 296 296 297 298 300 302 303 305 315 333 335 330 315 318 323 319 321 322 323 322 323 322 320 319 320 321 321 321 323 326 328 329 331 336 341 343 342 344 346 347 347 347 347 347
297 294 296 296 296 295 298 296 297 300 301 301 302 302 304 318 315 318 320 324 320 321 321 319 319 319 318 317 317 316 318 319 318 320 323 324 322 323 327 330 340 343 346 344 345 345 346 343 343
295 292 289 296 298 297 296 289 297 302 299 299 300 300 302 302 307 314 318 320 318 318 317 318 321 316 315 315 316 315 316 317 317 318 321 322 322 323 324 325 327 333 343 343 343 342 342 342 341
291 288 289 293 297 296 295 290 298 304 303 302 302 304 302 301 305 312 318 317 315 313 313 315 315 314 315 315 315 314 316 316 317 318 318 320 322 323 322 324 326 330 338 338 340 340 340 340 341
287 287 289 289 295 295 292 291 298 302 302 301 302 304 307 305 303 311 317 317 316 314 313 315 316 315 314 314 314 313 312 314 315 316 318 319 320 323 321 322 325 329 331 335 338 337 338 339 340
292 290 289 292 295 292 291 293 297 299 301 300 302 303 305 308 312 314 315 316 316 315 315 314 314 315 312 312 311 312 311 312 314 316 319 318 319 321 320 320 322 324 324 329 333 336 334 335 337
293 290 289 292 295 291 291 293 296 298 299 300 300 302 304 306 308 310 311 313 314 314 315 315 314 315 314 314 314 314 313 313 315 315 317 318 320 322 321 319 319 319 321 323 325 328 331 331 335
290 289 289 290 293 292 290 288 293 298 299 302 302 302 303 305 307 309 311 311 313 313 315 315 314 314 316 315 313 313 312 312 312 313 315 317 319 322 321 319 319 318 319 319 321 324 326 325 331
287 294 293 292 289 285 289 281 287 293 295 298 300 300 301 303 307 308 310 311 313 314 315 315 315 316 318 317 314 313 310 309 311 312 314 314 317 319 321 320 319 317 318 317 318 323 323 325 322
292 295 291 292 286 285 286 283 285 292 292 294 299 302 302 302 304 306 307 310 312 314 315 316 316 317 317 317 316 315 312 311 312 313 313 311 314 317 318 319 318 317 317 317 317 318 318 321 324
295 291 288 285 284 279 284 284 283 288 292 295 299 302 304 303 303 304 306 308 310 313 314 314 314 314 315 315 314 312 310 311 311 311 311 310 311 314 315 317 317 316 316 316 316 317 318 318 320
291 285 278 279 277 277 285 284 283 292 296 297 299 300 302 303 302 303 304 305 306 307 310 310 313 312 314 314 313 313 313 312 312 312 312 310 310 311 312 314 314 315 315 316 316 316 317 318 318
287 285 279 276 275 279 285 280 287 295 296 298 300 299 300 300 300 301 303 303 304 306 307 307 308 308 308 309 309 310 310 311 311 312 311 309 310 311 313 313 314 314 314 315 315 314 314 316 318
288 284 286 282 280 278 281 286 293 295 294 295 297 298 297 297 298 299 300 302 302 304 304 303 304 305 305 306 307 306 307 309 309 310 310 311 311 312 312 313 312 311 312 313 313 311 311 313 314
291 292 282 281 276 276 280 282 284 289 291 293 294 295 296 297 297 298 299 301 302 301 302 301 303 304 304 304 304 305 305 307 309 310 309 309 309 309 310 310 309 309 309 309 310 309 310 310 311
289 286 285 284 281 277 276 280 289 290 292 293 294 295 295 296 296 297 298 300 300 301 300 299 301 301 302 303 303 303 304 305 306 306 306 307 307 307 307 308 308 307 307 307 307 307 308 308 310
291 288 286 278 279 281 280 283 294 293 294 295 295 295 296 296 297 298 299 299 299 299 299 299 300 302 302 303 302 302 303 304 303 304 304 305 305 306 306 306 306 306 306 306 306 306 307 308 310
Wind_Speed
3 3 3 2 7 7 3 3 1 4 1 2 7 3 3 2 1 3 4 4 5 0 1 7 10 10 10 9 9 10 9 11 12 13 13 12 12 12 12 11 10 10 11 11 12 11 11 10 10
0 4 2 2 7 5 3 5 3 5 4 6 5 1 2 1 1 3 6 6 3 3 5 6 7 8 9 11 10 10 10 10 11 11 11 11 11 11 11 11 10 10 11 11 11 10 10 10 9
4 1 4 5 5 4 3 4 1 4 5 3 3 1 1 2 1 3 5 4 11 2 7 5 6 6 6 9 11 11 10 9 9 10 8 9 9 10 9 9 9 8 9 9 8 8 7 8 8
2 4 5 7 4 5 7 5 3 7 2 2 2 4 1 3 3 6 6 11 12 11 8 6 7 5 6 6 9 10 11 10 8 7 7 7 7 6 7 6 6 6 7 8 7 7 6 5 6
5 4 6 4 3 2 1 6 8 3 2 3 4 4 2 5 8 5 5 5 5 6 4 10 7 5 4 5 4 6 9 10 9 8 7 5 5 7 6 5 5 5 6 6 6 6 5 4 4
5 4 7 3 3 3 2 2 1 4 6 7 6 5 3 5 4 5 9 7 5 5 7 7 7 6 5 4 3 1 3 2 0 5 7 8 7 7 7 7 6 6 6 6 6 6 5 5 5
7 5 3 4 1 2 0 5 3 5 5 3 7 4 4 7 9 5 6 4 7 4 7 5 5 7 7 5 4 4 3 3 1 3 3 4 5 5 6 6 6 7 7 7 7 7 8 7 7
6 6 4 1 2 0 2 3 3 4 1 3 6 5 5 7 4 6 4 6 6 7 6 5 6 6 6 4 5 4 2 2 1 2 3 4 5 7 7 7 7 8 8 8 8 8 8 8 8
4 7 2 2 5 3 3 2 0 1 5 2 4 3 5 7 6 4 4 4 5 4 4 5 5 5 3 4 4 4 3 1 2 1 3 3 2 4 6 7 9 10 10 10 9 10 9 9 9
6 5 5 3 3 3 2 2 2 3 5 5 4 5 7 8 5 3 1 2 1 2 3 4 5 4 2 3 3 3 3 2 1 1 2 2 3 3 6 8 10 11 11 12 11 12 12 10 4
2 4 4 3 2 2 2 3 2 6 3 6 8 5 5 7 6 5 5 5 4 3 3 5 7 6 6 4 3 2 3 2 1 1 3 3 2 2 3 3 3 3 7 4 6 6 5 6 4
5 3 2 2 2 2 2 0 2 1 5 9 8 13 9 11 12 12 8 6 7 6 5 6 6 6 5 4 3 3 3 2 3 3 4 1 1 2 3 3 4 4 4 5 5 4 6 6 7
5 1 1 0 5 3 5 1 2 5 6 7 8 10 12 12 11 7 6 5 6 6 5 4 4 6 5 6 4 4 3 4 4 4 5 4 3 2 3 3 3 4 4 5 5 5 6 6 7
1 1 4 5 3 2 3 3 4 6 3 5 5 7 11 15 16 5 7 9 8 7 8 6 6 5 6 5 5 4 4 4 5 5 5 5 4 3 3 3 3 4 3 4 5 5 5 6 6
2 4 5 7 7 4 3 9 7 11 10 5 4 4 8 10 7 16 17 16 13 7 5 7 8 7 5 7 5 4 4 4 5 4 5 6 5 5 5 4 4 4 3 5 4 4 4 5 4
5 7 6 7 9 5 5 1 10 14 7 9 10 9 8 6 7 6 6 8 3 4 3 4 4 5 4 5 4 4 4 4 4 4 3 5 5 5 4 4 5 7 6 4 4 4 4 5 4
8 3 5 4 6 0 7 1 10 13 13 14 13 13 7 7 4 6 4 7 8 8 8 5 7 5 5 5 4 3 4 4 3 3 4 5 4 3 3 3 3 5 5 5 4 4 4 3 3
1 3 3 3 6 7 5 8 7 12 13 11 12 12 14 8 9 4 7 9 8 8 6 5 3 2 2 4 4 2 3 3 4 3 4 6 5 6 4 2 4 4 4 5 4 5 3 4 4
3 4 3 1 4 4 7 6 8 9 14 15 14 12 11 12 9 10 10 8 9 8 7 6 4 4 2 3 2 2 1 1 2 2 4 5 5 6 7 5 4 4 4 5 5 2 4 4 2
6 3 3 3 3 2 6 5 3 7 6 6 7 10 10 6 9 9 8 8 8 6 5 3 1 4 5 4 3 2 2 2 2 1 2 4 3 3 4 5 5 5 4 5 6 6 3 2 2
4 4 2 3 4 3 6 2 3 2 5 7 7 6 7 7 7 5 7 7 6 5 3 5 5 5 2 2 2 2 2 2 2 1 1 0 1 1 3 3 4 5 3 4 4 5 5 4 3
2 1 2 4 3 4 2 5 3 2 6 6 8 8 8 8 7 6 7 4 3 6 7 8 5 2 3 4 3 3 2 3 3 3 3 3 2 2 1 2 3 4 3 4 3 3 3 3 5
4 3 2 2 3 3 4 4 4 2 4 5 7 6 6 6 6 8 8 7 7 8 9 6 4 7 8 8 9 5 5 4 3 2 5 4 3 3 3 2 2 3 4 4 4 4 4 3 5
4 2 8 5 3 3 1 5 4 1 2 1 3 5 6 7 7 6 5 4 5 5 6 5 6 6 7 5 7 6 7 6 3 4 5 4 3 2 4 4 3 2 2 4 5 5 4 4 5
10 7 6 7 6 5 1 2 3 2 3 1 1 4 6 6 7 8 8 8 8 8 8 8 8 8 10 10 12 10 8 8 7 7 6 5 3 3 5 4 4 2 3 4 5 6 7 5 5
4 4 7 4 3 5 6 4 4 1 3 5 5 4 4 8 7 7 8 8 8 8 8 7 7 7 7 6 9 9 8 7 7 8 6 5 5 4 4 5 4 4 4 4 5 6 6 7 6
3 6 1 3 2 2 3 1 5 1 7 7 7 7 8 8 7 7 7 7 8 8 9 8 8 7 7 7 8 8 7 7 8 8 5 4 4 4 5 4 5 5 6 6 6 6 7 6 8
7 2 5 5 2 6 5 3 5 1 3 4 2 4 8 7 8 8 9 11 9 8 8 8 8 8 7 8 8 8 7 6 5 4 5 5 4 4 5 5 6 7 8 7 7 6 7 8 7
4 3 6 3 4 4 5 5 5 4 2 6 8 8 9 10 10 10 11 12 11 10 8 8 8 8 11 11 10 9 10 11 7 6 6 7 6 7 7 8 8 9 9 8 9 9 9 11 10
3 3 5 6 5 5 3 9 4 7 3 4 7 9 10 9 10 12 13 13 11 11 11 9 8 14 15 12 10 11 15 14 13 8 8 7 8 7 8 8 10 10 10 9 10 12 11 12 12
Wind_Direction
315 126 134 58 55 61 359 354 170 92 127 111 170 127 179 320 146 221 233 2 280 190 288 109 129 125 126 129 123 115 102 102 105 109 115 123 128 128 127 128 131 132 131 128 126 123 122 121 123
246 123 79 74 88 80 296 286 169 148 193 132 159 88 250 144 217 212 179 188 249 176 89 65 107 115 129 130 130 125 120 116 114 115 123 132 134 135 132 138 143 142 141 137 135 134 133 132 133
168 77 81 90 90 126 161 235 121 104 133 119 120 94 336 178 277 238 274 206 155 136 109 99 112 123 141 139 138 138 131 125 127 129 132 135 139 137 137 141 146 147 147 144 143 142 144 141 141
101 11 34 71 104 193 176 229 171 133 303 159 182 106 137 210 240 204 196 217 141 141 119 95 121 152 146 153 151 144 144 141 140 141 145 142 141 140 142 145 152 158 160 158 156 152 156 159 155
37 54 58 61 316 286 199 178 155 126 252 151 183 141 277 284 267 245 7 334 30 104 125 113 106 125 157 148 159 164 157 155 154 160 169 174 166 163 168 170 173 181 179 179 178 174 171 185 183
46 93 63 104 269 339 10 304 63 171 180 133 134 108 236 295 258 26 42 39 34 71 97 69 106 107 100 78 91 77 45 25 133 183 184 189 193 193 188 193 198 203 201 203 197 197 204 211 219
101 75 138 132 255 328 198 148 236 152 138 137 138 99 301 276 229 49 34 10 32 110 78 104 113 101 90 81 79 78 84 74 360 303 291 275 259 243 230 220 222 222 219 224 224 214 211 215 229
100 91 88 58 128 346 285 276 96 133 164 109 139 172 233 241 219 64 32 13 38 50 97 80 66 79 106 107 103 99 95 103 106 292 290 288 284 280 270 253 254 258 248 241 244 245 238 226 222
115 62 95 164 146 197 304 154 252 87 107 45 16 151 243 180 102 38 27 20 45 81 93 102 119 119 123 131 144 106 54 111 159 202 275 282 255 263 272 268 260 258 262 262 257 257 255 254 239
78 89 202 204 160 144 166 161 290 83 67 10 33 360 61 111 104 118 294 258 73 96 99 142 119 123 137 109 98 83 73 336 299 197 233 242 257 261 272 269 269 268 262 263 266 264 261 260 258
111 150 189 197 169 141 42 48 336 109 83 219 172 174 149 136 176 201 211 222 192 163 134 164 150 175 165 152 148 81 32 39 122 63 291 233 229 244 253 252 253 255 263 258 260 265 259 256 249
81 75 180 116 140 120 100 109 59 205 235 173 183 166 160 175 192 202 212 199 179 183 148 169 151 150 99 80 80 91 86 58 52 35 16 357 198 238 248 250 239 241 224 243 238 251 257 256 258
77 166 83 242 102 104 113 108 202 352 39 131 127 165 180 195 207 209 218 198 192 184 166 159 114 102 106 96 92 96 82 67 57 49 31 33 30 324 282 257 253 248 235 230 241 243 249 249 254
297 77 16 31 341 208 125 83 66 324 7 99 138 209 201 200 200 158 181 201 207 174 180 148 120 133 132 122 115 102 87 82 60 48 40 51 51 33 357 301 267 262 226 224 235 239 235 251 243
86 105 57 1 328 38 307 55 42 333 334 348 313 235 263 240 201 204 192 192 192 193 159 154 153 139 131 137 122 97 97 96 77 60 31 32 34 21 6 351 337 308 273 243 230 230 235 250 232
54 51 58 323 6 351 81 239 15 347 16 23 350 330 242 226 244 271 249 203 203 55 133 145 128 127 136 101 92 85 89 87 78 83 69 46 25 31 28 12 356 334 312 269 229 210 222 242 224
8 71 47 1 13 244 64 350 349 359 22 16 360 355 12 305 268 244 18 60 52 57 54 36 14 30 71 89 77 68 92 87 94 83 53 27 31 58 57 28 338 337 345 333 276 244 212 228 240
26 49 65 80 323 44 40 74 346 4 30 15 5 8 17 32 302 318 83 82 70 56 62 58 40 82 107 88 65 41 45 43 45 44 46 21 10 17 37 37 1 353 360 4 336 282 268 247 240
105 92 86 174 342 82 46 65 10 349 28 14 8 8 25 34 22 45 65 68 78 54 51 21 353 321 318 26 41 47 17 11 48 67 70 34 19 14 5 2 6 9 13 352 359 322 298 278 255
51 93 7 326 338 108 96 96 41 17 18 13 346 7 5 32 45 36 40 52 65 70 46 32 5 1 20 21 360 12 341 309 269 309 75 53 49 62 11 356 352 6 2 9 15 4 323 280 231
41 85 351 229 351 21 118 27 41 43 29 13 15 4 17 10 15 70 72 68 75 74 62 46 17 6 14 16 316 261 232 256 287 324 258 99 329 39 42 12 350 345 3 9 355 355 3 322 299
70 239 265 241 114 229 42 266 241 112 31 17 5 14 9 8 2 18 18 25 156 168 163 159 160 220 259 254 255 233 226 237 238 245 228 247 206 199 235 337 2 341 333 350 344 343 329 319 300
229 350 7 336 108 75 345 75 255 75 36 7 350 10 5 2 12 11 6 3 347 347 336 315 212 211 214 206 206 214 238 228 234 270 276 268 268 259 240 202 301 342 329 321 321 330 328 302 295
295 29 36 48 74 44 240 100 293 15 97 333 325 348 353 358 357 1 0 360 342 333 340 328 318 308 317 336 316 278 282 292 250 237 251 248 224 223 234 247 223 261 300 311 314 307 288 286 283
42 44 357 5 8 223 66 15 257 327 41 19 124 13 352 353 3 346 352 341 337 335 334 334 329 319 318 325 315 304 290 274 253 237 242 249 249 208 225 219 227 249 283 287 296 299 294 284 273
36 111 143 266 231 261 322 240 221 286 29 31 43 26 4 7 4 344 339 334 327 319 313 317 315 308 303 289 283 288 284 285 279 258 227 218 216 215 211 225 242 253 253 255 265 281 284 286 274
343 38 205 117 21 25 255 326 307 303 24 4 12 26 356 330 326 313 306 297 295 292 293 290 290 286 296 296 303 304 305 296 281 275 255 244 212 216 224 235 258 264 259 253 252 258 267 267 278
99 150 32 9 345 305 279 243 235 168 261 261 329 297 280 281 298 298 298 301 297 274 264 278 280 277 289 296 281 277 282 285 286 266 251 243 245 240 248 259 262 266 275 272 265 265 262 260 258
7 28 56 108 141 212 299 254 214 192 0 335 321 325 322 315 306 293 293 298 292 290 275 254 259 261 287 292 270 274 283 278 250 231 231 230 235 231 236 245 256 268 275 278 274 271 272 266 266
290 126 119 118 277 229 192 276 143 160 198 280 307 299 291 284 283 289 289 289 288 279 274 271 278 299 304 288 268 281 290 274 260 240 237 237 239 239 249 256 259 263 264 269 268 280 276 269 265